Weather History for Marietta, GA

Change the Weather History Date:

Thursday, February 14, 2013

  Actual Average Record
Temperature  
Mean Temperature 46 °F -  
Max Temperature 55 °F 54 °F 66 °F (2011)
Min Temperature 38 °F 35 °F 23 °F (2008)
Degree Days  
Heating Degree Days 18    
Moisture  
Dew Point 33 °F    
Average Humidity 67    
Maximum Humidity 84    
Minimum Humidity 37    
Precipitation  
Precipitation 0.00 in - - ()
Sea Level Pressure  
Sea Level Pressure 30.04 in    
Wind  
Wind Speed 9 mph (NW)    
Max Wind Speed 15 mph    
Max Gust Speed 20 mph    
Visibility 10 miles    
Events      
Averages and records for this station are not official NWS values.
T = Trace of Precipitation, MM = Missing Value Source: NWS Daily Summary

Daily Weather History Graph

Daily Weather History Graph

Search for Another Location

Airport:

Trip Planner

Search our weather history database for the weather conditions in past years. The results will help you decide how hot, cold, wet, or windy it might be!

Date:

Astronomy

Feb. 14, 2013 Rise Set
Actual Time 7:23 AM EST 6:21 PM EST
Civil Twilight 6:57 AM EST 6:47 PM EST
Nautical Twilight 6:28 AM EST 7:16 PM EST
Astronomical Twilight 5:59 AM EST 7:45 PM EST
Moon 9:40 AM EST (2/14) 11:06 PM EST (2/14)
Length of Visible Light 11h 49m
Length of Day
10h 58m
Waxing Crescent, 21% of the Moon is Illuminated
Feb 14
Waxing Crescent
Feb 17
First Quarter
Feb 25
Full
Mar 4
Last Quarter
Mar 11
New

Hourly Weather History & Observations

Time (EST) Temp. Windchill Dew Point Humidity Pressure Visibility Wind Dir Wind Speed Gust Speed Precip Events Conditions
12:58 AM 39.4 °F 32.7 °F 33.8 °F 80% 29.98 in 10.0 mi NW 10.4 mph - N/A   Overcast
1:58 AM 39.9 °F 32.5 °F 33.6 °F 78% 29.98 in 10.0 mi NW 12.7 mph 18.4 mph N/A   Overcast
2:43 AM 39.2 °F 33.0 °F 32.0 °F 75% 29.97 in 10.0 mi NW 9.2 mph 19.6 mph N/A   Overcast
2:58 AM 39.9 °F 32.1 °F 34.0 °F 79% 30.00 in 10.0 mi NNW 13.8 mph 18.4 mph N/A   Overcast
3:58 AM 39.7 °F 32.3 °F 33.4 °F 78% 30.00 in 10.0 mi WNW 12.7 mph 19.6 mph N/A   Overcast
4:58 AM 39.2 °F 30.8 °F 32.9 °F 78% 30.01 in 10.0 mi NNW 15.0 mph - N/A   Overcast
5:58 AM 38.8 °F 31.2 °F 32.9 °F 79% 30.01 in 10.0 mi NNW 12.7 mph - N/A   Overcast
6:58 AM 38.8 °F 32.1 °F 32.5 °F 78% 30.05 in 10.0 mi WNW 10.4 mph - N/A   Overcast
7:45 AM 39.2 °F 33.0 °F 32.0 °F 75% 30.05 in 10.0 mi NW 9.2 mph - N/A   Overcast
7:58 AM 38.7 °F 32.9 °F 32.2 °F 78% 30.07 in 10.0 mi WNW 8.1 mph - N/A   Overcast
8:08 AM 39.2 °F 33.0 °F 32.0 °F 75% 30.06 in 10.0 mi NW 9.2 mph - N/A   Mostly Cloudy
8:58 AM 39.7 °F 34.3 °F 31.6 °F 73% 30.08 in 10.0 mi NW 8.1 mph - N/A   Mostly Cloudy
9:58 AM 42.4 °F 37.5 °F 32.4 °F 68% 30.09 in 10.0 mi NNW 8.1 mph - N/A   Mostly Cloudy
10:58 AM 44.1 °F 40.1 °F 32.0 °F 63% 30.10 in 10.0 mi Variable 6.9 mph - N/A   Mostly Cloudy
11:58 AM 47.5 °F - 32.9 °F 57% 30.09 in 10.0 mi Variable 5.8 mph - N/A   Scattered Clouds
12:58 PM 50.7 °F - 31.8 °F 48% 30.08 in 10.0 mi West 4.6 mph - N/A   Scattered Clouds
1:58 PM 53.4 °F - 31.1 °F 43% 30.05 in 10.0 mi WNW 5.8 mph - N/A   Scattered Clouds
2:58 PM 54.9 °F - 30.0 °F 39% 30.03 in 10.0 mi NW 10.4 mph - N/A   Scattered Clouds
3:58 PM 55.9 °F - 29.8 °F 37% 30.02 in 10.0 mi WNW 11.5 mph - N/A   Scattered Clouds
4:58 PM 55.6 °F - 30.2 °F 38% 30.03 in 10.0 mi NW 8.1 mph - N/A   Scattered Clouds
5:58 PM 53.6 °F - 32.2 °F 44% 30.03 in 10.0 mi NW 5.8 mph - N/A   Partly Cloudy
6:58 PM 48.9 °F - 32.9 °F 54% 30.05 in 10.0 mi WNW 4.6 mph - N/A   Clear
7:58 PM 46.0 °F 42.5 °F 34.3 °F 64% 30.05 in 10.0 mi West 6.9 mph - N/A   Clear
8:58 PM 44.6 °F 41.4 °F 35.1 °F 69% 30.07 in 10.0 mi West 5.8 mph - N/A   Clear
9:58 PM 41.2 °F - 35.2 °F 79% 30.08 in 10.0 mi Calm Calm - N/A   Clear
10:58 PM 38.7 °F - 34.2 °F 84% 30.09 in 10.0 mi Calm Calm - N/A   Clear
11:58 PM 38.8 °F - 34.5 °F 84% 30.09 in 10.0 mi West 2.3 mph - N/A   Clear